Overview Statistics Trail Chart Weather Telemetry Raw packets
 

This is the latest recevied weather packets stored in our database for station/object KF7SOJ. If no packets are shown the sender has not sent any weather packets the latest 10 day(s).

<< 79 80 81 82 83 84 85 >>
Time Temp. Humidity Pressure Rain* Wind** Luminosity Snow
1788039918 27.78° C 30% 927.3 hPa 0 mm - 484 W/m² -
1788039617 27.78° C 30% 927.4 hPa 0 mm - 279 W/m² -
1788039313 27.22° C 31% 927.5 hPa 0 mm - 788 W/m² -
1788039008 27.78° C 30% 927.3 hPa 0 mm - 267 W/m² -
1788038703 27.78° C 32% 927.5 hPa 0 mm - 607 W/m² -
1788038403 27.78° C 31% 927.5 hPa 0 mm - 302 W/m² -
1788038098 27.78° C 32% 927.7 hPa 0 mm - 585 W/m² -
1788037798 27.22° C 32% 928.1 hPa 0 mm - 765 W/m² -
1788037497 27.78° C 31% 928 hPa 0 mm - 560 W/m² -
1788037192 28.33° C 30% 928.2 hPa 0 mm - 416 W/m² -
1788036892 28.33° C 31% 928.1 hPa 0 mm - 807 W/m² -
1788036589 27.78° C 30% 928.2 hPa 0 mm - 812 W/m² -
1788036284 27.78° C 31% 928.3 hPa 0 mm - 669 W/m² -
1788035979 27.78° C 32% 928.5 hPa 0 mm - 812 W/m² -
1788035673 27.78° C 32% 928.5 hPa 0 mm - 815 W/m² -
1788035369 27.22° C 31% 928.6 hPa 0 mm - 811 W/m² -
1788035065 27.78° C 32% 928.8 hPa 0 mm - 655 W/m² -
1788034761 26.67° C 33% 928.8 hPa 0 mm - 696 W/m² -
1788034457 26.67° C 33% 928.9 hPa 0 mm - 353 W/m² -
1788034153 26.67° C 33% 928.8 hPa 0 mm - 836 W/m² -
1788033851 26.67° C 32% 929 hPa 0 mm - 831 W/m² -
1788033551 27.22° C 32% 928.9 hPa 0 mm - 842 W/m² -
1788033251 26.11° C 35% 929 hPa 0 mm - 866 W/m² -
1788032947 26.11° C 33% 929.1 hPa 0 mm - 721 W/m² -
1788032646 27.22° C 34% 928.8 hPa 0 mm - 819 W/m² -

* Rain latest hour (hover to see other rain measurements)
** Current wind speed in m/s (hover to see current wind gust speed)